Flag for U.S.A. Weather past 2 weeks in Sacramento, California, U.S.A.

Now
49 °F

Light rain. Mostly cloudy.


Feels Like: 45 °F
Forecast: 42 / 63 °F
Wind: 8 mph from South

Location: Sacramento Executive Airport

Current Time: Mar 2, 2015 at 7:55:25 AM

Latest Report: Mar 2, 2015 at 6:53 AM


Visibility: 10 mi

Pressure: 29.80 "Hg

Humidity: 77%

Dew point: 42 °F

Location of SacramentoLocation

Historic Weather in Sacramento — Graph

°F

Sacramento temperature yesterday

Maximum temperature yesterday: 66 °F (at 2:53 PM)
Minimum temperature yesterday: 41 °F (at 4:53 AM)
Average temperature yesterday: 53 °F

Past Weeks' High & Low Weather Summary

 TemperatureHumidityPressure
High73 °F (Feb 16, 2:53 PM)100% (Feb 19, 11:02 PM)30.36 "Hg (Feb 19, 11:02 PM)
Low33 °F (Feb 24, 4:53 AM)17% (Feb 24, 2:53 PM)29.66 "Hg (Feb 27, 4:53 PM)
Average54 °F70%30.01 "Hg
* Reported Feb 15 5:53 AM — Mar 2 5:53 AM, Sacramento, Weather by CustomWeather, © 2015

Note: Actual official high and low records may vary slightly from our data, if they occured in-between our weather recording intervals... More about our weather records

Advertising

Sacramento weather history for previous 24 hours

 ConditionsComfort  
Time TempWeatherWind HumidityBarometerVisibility
5:53 AM
Mon, Mar 2
48 °FOvercast.7 mph80%29.80 "Hg10 mi
4:53 AM48 °FPassing clouds.6 mph77%29.80 "Hg10 mi
3:53 AM48 °FPassing clouds.7 mph77%29.81 "Hg10 mi
2:53 AM48 °FOvercast.6 mph77%29.83 "Hg10 mi
1:53 AM47 °FClear.8 mph80%29.85 "Hg10 mi
12:53 AM46 °FClear.5 mph83%29.88 "Hg10 mi
11:53 PM
Sun, Mar 1
49 °FClear.No wind80%29.88 "Hg10 mi
10:53 PM48 °FClear.3 mph77%29.89 "Hg10 mi
9:53 PM49 °FClear.3 mph74%29.89 "Hg10 mi
8:53 PM52 °FClear.3 mph61%29.89 "Hg10 mi
7:53 PM52 °FClear.No wind57%29.89 "Hg10 mi
6:53 PM60 °FClear.5 mph41%29.89 "Hg10 mi
5:53 PM63 °FSunny.7 mph37%29.89 "Hg10 mi
4:53 PM64 °FSunny.6 mph37%29.88 "Hg10 mi
3:53 PM66 °FSunny.8 mph34%29.89 "Hg10 mi
2:53 PM66 °FSunny.8 mph37%29.90 "Hg10 mi
1:53 PM65 °FSunny.6 mph44%29.92 "Hg10 mi
12:53 PM62 °FSunny.8 mph44%29.95 "Hg10 mi
11:53 AM59 °FSunny.7 mph49%29.98 "Hg10 mi
10:53 AM56 °FSunny.6 mph55%29.99 "Hg10 mi
9:53 AM55 °FSunny.3 mph67%30.00 "Hg10 mi
8:53 AM51 °FSunny.5 mph74%30.00 "Hg10 mi
7:53 AM47 °FSunny.3 mph83%29.99 "Hg10 mi
Weather by CustomWeather, © 2015

See weather overviewHow to use our weather pages